Theta_e
303 303 303 304 304 305 305 305 305 306 307 307 307 306 304 307 307 307 312 315 314 317 316 315 317 321 321 321 321 320 318 318 319 322 321 320 321 321 322 321 321 321 326 327 328 330 329 322 323 326 327 325 324 322
300 300 301 303 304 303 303 302 302 303 305 306 306 305 304 307 306 307 313 315 312 314 317 316 317 317 318 319 321 320 319 320 319 322 321 321 321 321 323 327 323 326 324 329 326 327 317 318 315 313 313 315 317 322
298 298 299 300 300 300 299 299 299 301 303 305 305 304 306 306 306 306 310 313 313 316 319 319 321 318 319 318 318 322 322 322 320 322 319 319 321 324 326 326 326 320 315 316 319 317 314 312 310 308 310 311 312 314
298 298 298 298 298 298 299 299 299 299 300 302 304 304 305 305 305 305 310 314 314 317 320 322 318 318 318 319 319 319 320 321 323 321 321 325 327 323 320 314 313 310 311 312 314 314 312 312 309 308 307 308 309 309
298 298 298 298 298 298 298 298 299 299 301 303 302 301 303 304 306 306 310 314 314 317 322 321 319 318 319 320 320 320 321 323 323 327 326 325 321 320 315 315 314 312 312 313 312 310 311 310 310 310 310 310 309 307
298 298 298 298 298 298 298 298 299 299 303 301 301 302 302 303 308 314 320 314 314 313 320 321 319 320 319 320 319 319 319 320 319 321 320 316 313 316 318 316 312 310 310 311 312 311 311 310 309 308 309 309 309 309
298 298 298 298 298 298 300 300 299 299 303 301 302 303 303 309 312 318 320 316 313 314 321 322 321 319 317 319 320 319 316 316 317 317 316 314 314 314 316 313 311 310 308 308 308 308 309 307 308 306 307 307 307 307
297 297 298 298 298 300 300 299 300 301 300 301 304 306 308 309 310 315 312 311 311 317 320 322 320 321 319 320 321 319 319 316 314 314 312 312 313 313 314 311 310 309 308 307 307 306 307 306 307 307 306 306 306 306
297 297 297 298 300 300 300 301 300 298 300 305 306 308 311 313 320 318 313 311 314 318 323 319 322 320 320 319 319 321 318 316 314 313 312 312 312 314 311 310 310 308 307 305 305 304 305 305 305 305 305 306 307 306
297 297 297 299 300 300 300 301 298 300 306 309 310 316 323 318 312 312 314 321 320 321 321 321 321 319 319 316 321 320 319 317 319 315 311 314 315 311 310 309 307 306 306 305 304 304 304 303 302 304 304 305 305 306
297 297 297 299 299 299 299 299 298 303 307 309 311 316 310 311 317 322 325 325 325 325 322 321 322 320 320 319 320 318 318 315 317 316 313 314 313 314 311 308 306 306 304 303 302 301 301 302 303 303 304 305 305 307
297 297 297 298 298 298 299 298 299 302 303 303 303 302 308 322 326 326 324 322 322 322 321 319 319 319 320 318 320 318 316 315 318 312 312 313 315 311 308 306 306 303 302 302 302 300 298 299 301 304 306 307 306 307
297 297 297 298 299 298 298 299 301 301 302 306 307 317 322 324 327 322 322 323 322 320 319 319 319 318 320 317 317 315 314 316 312 314 313 314 313 308 306 306 305 302 301 302 302 300 298 300 300 304 308 306 306 305
297 297 298 300 299 298 299 302 302 303 304 314 317 321 323 322 321 320 321 321 320 320 319 320 318 316 316 316 313 313 313 310 311 311 311 314 309 306 305 304 303 302 302 303 302 300 298 298 297 297 297 298 299 299
298 298 300 302 299 300 303 304 304 303 310 316 319 322 322 321 321 320 320 320 319 319 319 319 318 315 314 314 311 309 309 308 311 312 314 310 306 305 304 303 302 301 302 303 301 300 299 298 297 295 295 295 295 295
297 302 303 301 302 304 303 305 307 308 312 317 318 322 321 321 320 320 320 320 319 319 319 317 313 313 312 312 312 311 310 310 312 313 310 306 305 304 302 303 302 301 300 301 300 300 299 298 297 296 295 295 295 294
299 304 301 300 303 304 305 307 310 313 317 321 323 322 322 321 320 320 320 320 320 320 318 314 312 313 311 312 312 312 312 312 311 310 309 306 304 302 303 302 300 299 299 299 299 299 299 298 297 297 297 296 294 294
301 301 300 303 303 305 308 310 312 315 321 323 322 321 320 321 320 321 320 320 319 318 315 312 312 311 311 312 313 311 311 311 310 308 306 305 301 302 301 300 299 299 299 299 298 297 297 297 296 296 296 295 294 294
299 301 302 303 303 302 309 313 314 318 321 320 320 320 320 320 320 319 320 319 319 317 317 314 311 311 311 311 310 312 311 309 308 308 306 303 301 301 299 299 299 300 299 298 297 296 296 296 295 295 295 295 295 295
303 304 304 304 305 307 312 315 315 318 321 320 320 321 320 321 321 320 320 320 319 319 318 317 314 312 312 312 311 311 308 307 307 308 305 304 302 301 300 300 299 298 299 297 296 296 296 296 295 295 296 296 296 296
305 306 304 306 308 309 311 314 316 318 318 320 321 320 322 321 321 320 322 320 320 320 320 316 314 314 311 311 309 308 307 305 305 305 305 305 302 302 302 301 299 298 299 299 297 296 296 296 296 296 297 297 296 295
305 303 305 307 308 310 313 313 316 316 317 319 320 320 321 321 322 320 321 320 322 320 318 316 314 313 312 312 310 307 305 303 301 300 300 300 303 303 302 301 300 300 300 298 297 297 298 298 297 297 296 295 294 294
303 304 306 307 310 311 314 314 315 317 318 319 319 320 320 320 321 320 320 321 321 319 316 315 313 311 311 310 309 307 305 303 303 302 302 302 302 301 300 300 299 299 299 298 297 297 297 296 296 297 297 296 296 295
304 305 308 310 312 314 312 314 315 317 318 319 320 320 319 321 320 320 320 322 320 317 316 315 313 313 312 310 310 308 305 303 303 302 302 302 302 301 300 299 299 298 298 298 298 297 297 296 296 297 296 296 296 295
307 307 310 316 310 311 312 314 317 317 320 321 321 321 322 320 319 319 319 321 319 318 316 315 314 314 314 312 310 308 305 303 303 303 302 302 301 300 299 299 299 298 298 298 298 298 297 297 296 296 296 296 296 295
308 308 311 311 311 312 313 315 316 317 318 319 319 320 321 321 320 320 321 320 319 318 317 316 315 315 314 311 310 308 305 303 302 302 301 301 301 301 300 300 300 299 298 298 298 298 298 297 297 297 296 294 294 295
307 309 308 309 309 310 312 312 313 315 316 318 318 318 319 320 320 322 320 319 320 317 316 316 315 314 314 311 308 306 304 302 302 302 301 300 300 300 300 300 300 299 298 298 298 298 298 297 297 297 295 295 294 294
307 308 309 309 309 310 310 310 310 312 314 316 317 318 319 320 323 322 319 318 319 317 317 316 315 314 313 309 307 304 302 301 301 300 300 300 299 299 299 299 298 297 298 298 298 298 298 297 296 295 295 294 293 293
308 307 308 308 308 309 310 310 310 309 310 312 314 315 316 318 319 318 316 315 315 316 316 316 315 313 310 307 306 304 302 301 301 302 302 302 300 299 299 298 296 297 298 296 294 296 296 296 295 295 294 294 293 293
308 307 308 308 309 309 310 310 311 311 311 310 311 311 311 311 311 311 312 312 314 314 314 315 315 312 311 308 304 304 302 301 301 301 303 303 301 300 299 299 298 299 299 298 295 293 293 293 292 293 294 294 294 294
308 307 307 308 309 310 310 310 310 311 311 312 311 311 311 312 311 311 311 311 312 312 313 314 314 313 312 307 306 304 304 302 301 302 302 302 301 300 300 300 299 299 299 298 297 296 295 295 295 294 294 293 292 293
308 308 309 309 310 311 311 312 312 313 313 313 313 312 312 312 314 315 315 315 314 314 313 312 313 314 312 308 306 308 307 304 302 301 301 302 301 301 300 300 300 300 299 299 298 297 296 296 295 295 294 293 293 292
309 309 309 309 309 309 310 310 312 312 313 313 313 314 314 314 315 317 317 316 316 315 313 313 312 313 314 310 308 308 305 303 302 302 301 301 301 301 301 300 300 300 300 299 299 298 297 296 295 295 294 294 293 293
Wind_Speed
26 27 28 28 28 27 27 30 31 29 29 28 29 28 26 22 19 14 13 9 9 6 8 5 6 7 9 7 7 8 9 7 7 8 9 10 9 10 9 13 12 13 11 9 10 12 15 24 8 5 11 12 13 2
26 27 27 27 26 27 28 29 30 31 29 28 28 27 25 21 17 11 9 2 7 7 6 6 4 5 6 8 8 4 5 5 5 7 5 5 6 6 10 10 6 3 6 7 6 3 7 9 9 11 19 17 19 21
27 27 27 27 27 27 28 30 31 30 29 27 28 27 25 22 17 9 11 9 6 6 8 10 4 6 5 7 5 5 5 8 1 5 7 7 11 8 8 4 7 3 14 4 10 7 13 11 11 16 18 17 19 19
28 28 28 28 28 29 29 30 30 30 30 29 29 26 26 24 18 10 10 6 8 6 4 3 3 6 4 4 3 3 6 7 7 7 8 4 3 8 4 4 4 2 7 7 8 6 15 8 9 6 9 14 14 18
28 28 29 29 30 30 30 31 31 32 32 29 28 30 29 24 18 9 11 9 9 6 5 3 4 4 6 5 4 2 3 6 4 3 3 4 4 3 2 2 3 3 5 5 7 16 13 17 16 20 16 11 10 11
29 29 30 31 31 32 32 33 33 33 29 31 33 30 23 19 8 7 5 9 8 5 4 1 6 6 7 5 6 7 7 5 3 2 3 4 1 1 1 2 3 1 8 12 13 16 17 17 18 19 14 16 16 11
30 30 31 32 32 33 34 35 35 33 30 36 32 22 15 9 5 6 5 5 7 3 4 2 1 3 2 3 1 4 6 4 4 2 3 2 3 2 2 2 7 10 13 15 17 17 21 21 19 20 20 20 21 22
31 31 32 33 34 34 35 35 32 30 36 34 20 13 6 8 5 3 5 8 4 6 4 4 2 5 3 3 1 3 1 2 3 2 3 3 3 2 1 7 13 16 18 17 17 17 19 20 18 18 20 18 17 17
31 32 33 34 34 34 35 27 30 39 36 17 10 8 3 3 4 6 5 9 6 6 5 2 5 3 3 3 2 2 2 1 1 1 3 3 1 0 6 11 17 17 16 18 17 19 19 19 21 20 19 20 19 16
32 33 34 33 32 33 25 26 38 37 20 10 3 7 4 4 6 4 2 5 5 4 4 1 6 2 3 6 3 1 1 3 1 4 2 3 3 5 4 14 14 16 17 17 18 15 15 14 15 16 17 17 16 17
32 33 34 33 32 29 22 27 39 31 14 9 6 3 9 10 4 4 4 4 4 4 3 2 7 7 3 7 2 4 2 2 1 1 4 1 2 8 12 14 13 14 20 16 16 17 17 17 15 16 16 16 18 18
33 34 36 35 28 21 23 33 29 17 11 12 14 10 7 4 4 4 4 3 2 3 2 6 4 3 3 3 3 2 1 3 3 1 2 2 5 10 12 13 14 17 20 16 21 17 19 20 21 16 13 11 15 15
34 36 37 25 17 23 34 33 25 21 13 2 3 4 2 3 2 2 1 2 2 2 1 4 2 4 4 3 2 2 2 2 2 4 1 2 9 10 11 11 13 18 20 22 22 23 22 24 28 28 15 16 13 16
36 38 32 10 16 31 41 26 20 9 2 4 2 2 4 3 3 2 6 7 6 5 6 6 4 3 3 0 2 2 3 2 3 2 3 8 10 11 10 11 11 12 16 16 19 21 21 23 22 28 27 23 21 18
37 37 9 13 29 38 27 17 9 0 4 3 3 3 2 2 3 5 3 4 4 4 6 5 3 2 3 1 2 3 2 1 2 3 6 7 9 9 10 9 10 11 11 13 18 18 21 22 22 23 26 27 29 30
38 14 9 27 30 33 18 10 3 2 3 3 4 4 3 1 4 4 3 4 4 4 2 2 0 2 1 2 2 2 3 2 3 7 5 4 6 9 7 8 10 13 14 15 17 17 18 19 19 20 25 28 28 29
25 6 32 33 29 28 9 3 2 2 4 3 4 4 4 1 1 3 4 4 4 6 5 2 1 4 1 2 2 3 3 4 6 5 7 5 7 5 8 10 13 12 13 15 16 18 17 17 19 22 21 24 26 26
21 27 30 21 26 14 3 2 2 3 5 8 4 4 1 2 3 4 2 3 3 4 4 4 0 1 3 3 2 1 2 3 4 5 5 6 6 5 11 10 9 11 12 13 14 16 18 17 18 16 20 20 20 21
30 23 16 20 11 5 4 2 2 3 4 2 3 2 3 1 1 1 1 3 4 3 1 0 1 2 2 2 2 2 4 4 4 5 6 8 4 10 8 6 8 9 13 14 14 14 15 17 16 15 15 15 16 15
13 8 16 17 3 3 4 3 3 4 4 4 5 4 3 1 1 2 3 3 2 1 1 1 3 4 3 4 3 4 4 3 2 4 5 7 8 7 5 5 5 4 6 11 12 12 12 14 15 13 12 14 16 17
12 8 14 5 3 4 3 4 4 3 4 4 5 3 2 3 6 5 2 3 1 2 2 3 5 5 6 6 6 4 5 4 4 4 3 6 4 6 10 5 8 3 3 10 8 8 8 9 7 9 10 14 15 17
7 18 6 3 4 3 4 6 5 7 3 5 5 6 2 3 4 4 4 3 1 2 3 4 6 6 5 5 5 6 7 7 8 8 8 6 4 5 4 5 6 3 9 10 7 6 7 7 8 10 13 14 16 17
11 5 4 3 3 2 5 5 3 4 4 3 3 4 4 4 4 3 2 3 3 5 6 8 10 6 8 9 8 7 5 4 6 6 5 6 6 6 6 6 5 7 8 9 8 9 9 5 8 10 10 11 11 12
5 3 3 3 2 3 4 2 3 4 4 7 4 7 3 4 4 3 2 2 6 8 7 9 10 7 8 7 5 7 7 4 7 8 7 7 7 6 7 7 7 7 8 8 8 8 8 7 3 9 9 9 9 10
4 4 4 4 3 3 3 3 4 3 4 3 4 3 2 3 3 3 4 3 6 7 8 8 7 5 5 5 6 8 6 8 8 7 7 5 8 8 8 8 7 6 6 7 6 7 7 8 9 9 9 9 9 9
3 3 2 2 2 2 3 3 3 5 7 4 3 2 2 2 3 2 3 4 5 7 6 5 4 3 3 3 5 7 9 8 8 8 9 9 8 8 9 7 7 6 4 5 5 5 5 6 6 6 8 7 4 6
3 0 1 4 3 3 4 3 5 5 4 4 4 3 3 4 3 3 3 4 4 9 9 8 7 6 3 6 7 7 9 9 8 7 11 9 7 6 8 8 8 7 5 4 3 3 4 3 4 4 5 5 5 5
3 3 5 6 7 6 9 8 7 5 3 3 4 3 3 4 4 2 3 5 6 2 3 5 6 6 5 10 11 10 11 11 10 11 11 9 8 8 6 7 9 9 5 3 1 2 1 2 3 3 4 5 4 4
3 3 5 8 6 4 5 6 7 6 6 2 4 8 4 3 2 3 9 8 2 4 5 5 6 7 10 11 10 11 13 14 15 12 13 8 10 11 11 10 11 10 8 5 4 1 3 3 4 4 4 4 4 4
2 3 3 4 4 4 5 5 8 9 9 11 10 9 10 10 16 15 14 15 14 10 12 11 9 12 12 12 12 11 11 13 14 14 9 8 11 13 14 13 12 10 8 8 7 6 5 5 5 5 4 4 4 3
3 2 2 3 4 7 9 11 14 14 12 12 11 11 12 11 16 15 17 17 18 18 17 15 12 13 13 16 17 15 14 16 14 12 10 9 11 14 15 14 12 11 9 9 8 8 8 6 5 5 4 3 3 1
3 4 3 3 5 9 12 8 10 12 9 11 10 10 9 7 10 9 3 5 10 13 16 17 15 14 16 19 21 18 14 14 14 13 13 10 11 13 14 14 13 12 11 10 8 7 6 5 5 5 5 4 3 2
5 7 4 3 3 3 4 7 7 9 8 7 7 3 6 9 5 3 5 8 8 8 5 10 12 10 17 22 20 16 17 16 18 17 17 14 9 12 13 13 13 13 12 10 9 8 8 6 5 5 5 4 4 3
Wind_Direction
335 337 337 337 335 334 334 333 332 333 333 334 335 337 341 340 344 338 294 256 257 295 305 352 344 343 336 312 314 21 288 179 257 253 269 278 279 279 292 284 279 286 302 229 252 270 249 4 1 358 346 357 6 341
340 340 337 338 336 335 336 336 335 332 331 329 330 334 337 336 335 329 286 219 234 256 339 320 318 328 345 338 307 285 325 292 329 309 355 316 309 293 299 291 35 290 350 323 23 3 14 38 46 3 358 0 356 335
342 341 339 338 337 337 339 339 337 334 332 327 329 333 335 330 324 301 275 270 253 256 232 219 166 83 11 353 322 290 39 356 350 336 307 306 295 342 318 29 308 49 13 37 339 34 345 330 11 1 345 343 339 327
342 342 341 340 337 337 337 337 336 334 333 331 331 332 328 322 316 287 234 227 240 285 291 71 161 102 352 6 26 292 310 303 282 269 271 323 337 31 42 52 51 327 314 335 266 271 335 146 333 284 301 309 319 326
341 341 341 341 339 340 336 334 334 333 334 335 332 329 327 319 315 239 218 229 237 306 326 108 147 90 39 30 44 33 338 307 316 14 356 26 35 28 63 118 66 347 349 332 303 320 303 296 308 309 301 282 275 295
340 340 340 340 339 339 336 335 334 332 334 336 332 326 324 315 135 165 188 205 215 226 276 210 177 172 116 85 57 33 351 324 352 118 71 96 129 254 4 57 75 318 242 255 277 281 287 293 290 299 306 312 297 266
340 340 341 340 339 338 337 334 331 331 331 334 331 326 314 157 165 299 12 89 162 219 252 273 122 244 312 181 353 89 53 33 7 62 62 136 122 271 33 12 313 335 338 327 322 326 309 308 308 304 294 300 305 286
340 341 341 340 339 337 337 334 334 337 334 335 336 334 149 144 143 179 155 148 15 261 269 289 284 114 336 8 180 68 195 187 37 78 176 9 131 153 176 352 347 341 334 325 328 325 307 302 302 288 300 297 291 288
340 340 341 340 337 337 339 344 342 339 337 342 350 121 133 237 230 77 252 270 265 277 302 3 315 92 290 201 75 45 318 330 50 68 68 297 217 106 30 332 345 347 320 321 325 313 309 306 299 296 291 287 277 279
339 339 341 338 337 337 343 342 340 342 348 357 294 209 181 51 302 319 190 189 202 188 237 338 270 265 327 329 63 268 268 25 138 67 313 2 282 76 27 3 345 329 349 345 318 309 309 302 300 294 288 285 284 275
339 339 340 337 335 338 342 337 344 355 4 3 343 352 332 313 241 214 227 199 185 190 216 358 10 322 83 329 356 5 70 331 145 86 307 43 260 49 12 354 341 1 350 333 323 321 316 309 300 291 279 278 276 273
338 338 340 341 338 342 340 336 343 353 338 310 294 300 295 238 221 244 215 155 307 169 103 336 11 354 42 309 169 282 236 197 59 41 273 273 67 27 358 347 14 2 344 333 335 341 336 324 315 296 284 261 279 299
336 337 340 340 347 342 339 337 333 322 321 245 230 233 236 209 338 240 352 43 22 352 290 335 327 358 123 286 27 322 255 76 128 214 114 195 34 15 354 9 4 354 344 341 348 359 350 358 10 24 25 17 5 16
335 336 339 328 334 335 331 333 331 332 233 257 272 298 257 184 31 7 39 34 47 335 354 346 331 360 26 88 335 282 62 271 287 11 324 42 18 1 348 21 7 344 345 351 0 8 4 12 20 30 34 37 40 41
335 339 349 342 331 328 336 340 350 331 277 274 258 245 192 79 63 50 12 82 59 324 348 305 164 282 60 169 21 20 241 299 38 283 32 37 13 343 17 9 7 349 353 2 12 11 16 21 31 34 34 40 44 46
338 346 352 325 329 332 340 342 333 293 263 265 240 237 197 268 59 56 14 73 12 330 258 240 67 1 57 328 240 40 1 5 339 24 44 9 3 24 352 24 7 9 6 14 18 21 30 31 37 43 44 46 48 52
345 304 321 325 326 336 340 331 293 256 306 255 209 233 294 235 36 66 29 31 354 303 20 342 310 52 297 302 41 47 349 8 12 34 76 50 33 10 18 25 28 20 20 26 27 29 38 40 47 49 49 50 53 53
317 314 315 330 333 338 302 251 270 273 258 232 260 135 169 1 334 52 47 24 338 352 357 36 360 309 20 356 15 3 36 74 87 49 51 64 47 42 49 47 41 38 38 40 41 42 44 46 49 52 59 55 57 55
317 315 325 342 336 318 302 234 209 285 292 287 278 212 251 90 75 317 68 77 27 357 239 52 27 10 34 85 350 41 52 39 37 79 102 91 67 78 74 57 49 54 53 43 47 53 57 57 58 58 58 58 62 63
332 352 335 332 329 275 261 210 206 249 292 316 280 268 260 121 124 218 176 221 280 354 280 46 42 37 51 74 49 58 38 31 267 166 135 114 125 99 98 88 62 36 96 73 58 58 60 57 55 50 60 62 54 48
339 343 337 348 244 244 285 295 250 215 260 282 296 260 271 205 228 216 185 233 252 244 105 71 89 87 74 77 85 84 80 8 37 5 64 122 130 129 146 128 120 138 110 96 82 74 79 64 70 79 44 55 75 76
315 324 310 304 276 225 256 264 284 324 272 276 281 237 259 234 192 190 214 201 161 102 49 103 109 138 138 138 121 73 96 107 94 109 106 138 160 121 94 109 110 86 72 89 95 88 93 94 66 68 76 82 65 52
328 327 275 252 274 265 260 242 256 262 249 244 220 225 214 202 174 211 214 186 134 94 120 114 126 131 114 130 130 129 129 145 125 115 143 115 121 119 114 107 104 101 98 93 88 81 79 71 54 67 72 62 63 71
313 262 282 268 250 277 273 266 262 262 263 236 245 239 255 154 203 217 208 118 128 134 130 138 141 133 138 155 173 155 166 161 129 132 149 153 140 127 121 117 105 93 95 99 98 96 89 82 77 71 67 66 63 62
285 268 213 254 247 290 275 322 319 299 297 294 272 249 272 264 226 236 181 159 144 163 142 176 166 176 193 169 153 143 168 175 167 153 168 159 130 144 141 131 122 118 126 119 106 100 92 78 62 50 44 46 48 57
277 198 194 312 308 14 299 327 301 312 305 282 265 304 318 265 254 227 126 143 137 136 151 170 182 194 183 170 156 154 175 189 166 165 167 165 170 166 154 155 150 143 131 119 116 105 92 79 70 80 105 108 53 42
271 317 216 213 251 280 287 285 298 291 292 282 287 264 234 234 242 97 122 100 106 140 160 163 157 189 194 132 119 133 157 167 184 166 163 169 169 167 169 170 163 143 141 131 116 90 98 93 75 82 91 74 55 49
286 304 308 316 300 287 279 285 274 252 248 298 296 259 293 341 21 60 117 69 78 146 146 138 158 184 169 142 144 158 160 159 149 150 150 157 163 163 157 142 135 148 145 150 70 179 167 116 110 108 96 87 85 70
273 314 306 297 312 295 263 248 240 269 304 304 291 303 323 48 105 25 347 339 158 178 189 179 178 164 149 150 163 165 168 171 171 169 175 169 169 172 172 158 162 174 175 142 176 85 85 83 81 108 130 106 93 74
292 327 304 293 276 261 269 317 309 314 308 299 299 296 289 284 279 277 263 246 228 222 235 238 171 199 182 169 163 171 194 194 193 186 189 185 186 178 179 176 177 187 179 157 144 148 164 156 157 163 165 167 166 142
282 293 282 259 276 294 294 293 286 277 274 276 266 266 272 280 283 276 265 261 261 259 248 233 192 205 196 178 179 177 200 200 200 198 199 177 183 177 184 186 186 186 181 176 167 172 164 197 164 153 160 103 98 300
249 232 236 249 292 311 314 313 299 281 263 263 252 242 252 264 271 290 272 294 269 239 236 244 233 197 188 196 199 205 209 186 189 194 189 186 181 178 184 188 189 187 187 188 187 172 181 188 170 168 167 174 167 147
254 264 290 307 287 282 308 320 283 282 259 250 261 239 253 241 214 199 76 16 344 343 224 221 221 229 177 179 187 190 175 185 189 190 184 184 178 181 185 192 191 192 194 200 199 191 187 191 187 188 194 181 182 174